Monticello, KY

8:25 AM EST on December 09, 2019 (GMT -0500)
Wayne County

Weather History for KEKQ - September, 2019

Change the Weather History Date:

Saturday, September 28, 2019

  Actual Average Record
Temperature  
Mean Temperature 78 °F -  
Max Temperature 91 °F 74 °F 91 °F (2019)
Min Temperature 66 °F 50 °F 36 °F (1991)
Cooling Degree Days 14    
Growing Degree Days 28 (Base 50)    
Moisture  
Dew Point 66 °F    
Average Humidity 74    
Maximum Humidity 100    
Minimum Humidity 42    
Precipitation  
Precipitation 0.00 in - - ()
Sea Level Pressure  
Sea Level Pressure 30.08 in    
Wind  
Wind Speed 8 mph (NW)    
Max Wind Speed 16 mph    
Max Gust Speed 21 mph    
Visibility 10 miles    
Events      
Averages and records for this station are not official NWS values.
T = Trace of Precipitation, MM = Missing Value Source: NWS Daily Summary

Daily Weather History Graph

Daily Weather History Graph

Search for Another Location

Airport or City:

Astronomy

Sep. 28, 2019 Rise Set
Actual Time 6:32 AM CDT 6:27 PM CDT
Civil Twilight 6:06 AM CDT 6:53 PM CDT
Nautical Twilight 5:36 AM CDT 7:23 PM CDT
Astronomical Twilight 5:05 AM CDT 7:53 PM CDT
Moon 6:09 AM CDT (9/28) 6:51 PM CDT (9/28)
Length of Visible Light 12h 47m
Length of Day
11h 55m
Waning Crescent, 0% of the Moon is Illuminated
Sep 28
Waning Crescent
Sep 28
New
Oct 5
First Quarter
Oct 13
Full
Oct 21
Last Quarter

Hourly Weather History & Observations

Time (CDT) Temp. Heat Index Dew Point Humidity Pressure Visibility Wind Dir Wind Speed Gust Speed Precip Events Conditions
12:56 AM 72.0 °F - 68.0 °F 87% 29.96 in 10.0 mi SE 5.8 mph - N/A   Clear
1:56 AM 68.0 °F - 66.9 °F 96% 29.98 in 10.0 mi NNE 11.5 mph - N/A   Clear
2:56 AM 66.9 °F - 66.0 °F 97% 29.98 in 10.0 mi Variable 6.9 mph - N/A   Clear
3:56 AM 66.9 °F - 66.0 °F 97% 29.99 in 10.0 mi West 11.5 mph - N/A   Scattered Clouds
4:56 AM 68.0 °F - 66.0 °F 93% 30.01 in 10.0 mi Variable 6.9 mph - N/A   Clear
5:56 AM 69.1 °F - 66.0 °F 90% 30.04 in 10.0 mi North 8.1 mph - N/A   Clear
6:56 AM 66.0 °F - 66.0 °F 100% 30.08 in 10.0 mi NNE 8.1 mph - N/A   Mostly Cloudy
7:56 AM 73.9 °F - 70.0 °F 87% 30.10 in 10.0 mi NNW 9.2 mph - N/A   Mostly Cloudy
8:56 AM 80.1 °F 83.2 °F 70.0 °F 71% 30.11 in 10.0 mi North - - N/A   Mostly Cloudy
9:56 AM 82.9 °F 87.0 °F 70.0 °F 65% 30.13 in 10.0 mi Variable 4.6 mph 16.1 mph N/A   Scattered Clouds
10:56 AM 87.1 °F 91.3 °F 69.1 °F 55% 30.14 in 10.0 mi Variable 5.8 mph - N/A   Mostly Cloudy
11:56 AM 88.0 °F 91.4 °F 68.0 °F 51% 30.13 in 10.0 mi West 13.8 mph 19.6 mph N/A   Clear
12:56 PM 89.1 °F 92.1 °F 66.9 °F 48% 30.12 in 10.0 mi West 12.7 mph 20.7 mph N/A   Partly Cloudy
1:56 PM 91.0 °F 93.0 °F 64.9 °F 42% 30.10 in 10.0 mi West 9.2 mph 17.3 mph N/A   Clear
2:56 PM 90.0 °F 91.3 °F 64.0 °F 42% 30.08 in 10.0 mi WSW 16.1 mph - N/A   Clear
3:56 PM 90.0 °F 91.7 °F 64.9 °F 43% 30.08 in 10.0 mi WSW 15.0 mph 18.4 mph N/A   Clear
4:56 PM 87.1 °F 88.9 °F 64.9 °F 48% 30.09 in 10.0 mi WNW 10.4 mph - N/A   Clear
5:56 PM 84.0 °F 86.3 °F 66.0 °F 55% 30.10 in 10.0 mi Variable 5.8 mph - N/A   Clear
6:56 PM 78.1 °F - 66.0 °F 66% 30.11 in 10.0 mi Variable 3.5 mph - N/A   Clear
7:56 PM 72.0 °F - 64.9 °F 78% 30.12 in 10.0 mi Variable 3.5 mph - N/A   Clear
8:56 PM 69.1 °F - 64.9 °F 87% 30.13 in 10.0 mi NNE 8.1 mph - N/A   Clear
9:56 PM 66.0 °F - 63.0 °F 90% 30.14 in 10.0 mi Calm Calm - N/A   Clear
10:56 PM 66.0 °F - 64.0 °F 93% 30.15 in 10.0 mi Variable 4.6 mph - N/A   Clear
11:56 PM 66.0 °F - 64.9 °F 96% 30.16 in 10.0 mi Calm Calm - N/A   Clear